| time (UTC) | temp F | wind direction | speed knots | gust knots | rain 1hr in | rain 24hr in | rain mn in | humidity % | barometer mb |
| 20260906083044 | 72 | 227 | 0.0 | 0.0 | 0.00 | 0.00 | 0.00 | 25 | 1090.0 |
| 20260906081542 | 72 | 220 | 0.0 | 0.0 | 0.00 | 0.00 | 0.00 | 27 | 1090.0 |
| 20260906080036 | 72 | 253 | 0.0 | 0.0 | 0.00 | 0.00 | 0.00 | 30 | 1090.0 |
| 20260906074536 | 73 | 234 | 0.0 | 0.0 | 0.00 | 0.00 | 0.00 | 34 | 1090.0 |
| 20260906073030 | 73 | 198 | 0.0 | 0.0 | 0.00 | 0.00 | 0.00 | 46 | 1090.0 |
| 20260906071528 | 74 | 159 | 0.0 | 0.0 | 0.00 | 0.00 | 0.00 | 55 | 1090.0 |
| 20260906070027 | 74 | 88 | 0.0 | 0.0 | 0.00 | 0.00 | 0.00 | 58 | 1090.0 |
| 20260906064533 | 74 | 88 | 0.0 | 0.0 | 0.00 | 0.00 | 0.00 | 54 | 1090.0 |
| 20260906063025 | 74 | 88 | 0.0 | 0.0 | 0.00 | 0.00 | 0.00 | 56 | 1090.0 |
| 20260906061526 | 75 | 88 | 0.0 | 0.0 | 0.00 | 0.00 | 0.00 | 55 | 1090.0 |
| 20260906060023 | 75 | 88 | 0.0 | 0.0 | 0.00 | 0.00 | 0.00 | 52 | 1090.0 |
| 20260906054521 | 75 | 88 | 0.0 | 0.0 | 0.00 | 0.00 | 0.00 | 49 | 1090.0 |
| 20260906053025 | 74 | 88 | 0.0 | 0.0 | 0.00 | 0.00 | 0.00 | 45 | 1090.0 |
| 20260906051517 | 75 | 89 | 0.0 | 0.0 | 0.00 | 0.00 | 0.00 | 51 | 1090.0 |
| 20260906050044 | 75 | 87 | 0.0 | 0.0 | 0.00 | 0.00 | 0.00 | 57 | 1090.0 |
| 20260906044516 | 75 | 86 | 0.0 | 0.0 | 0.00 | 0.00 | 0.00 | 57 | 1090.0 |
| 20260906043016 | 76 | 88 | 0.0 | 0.0 | 0.00 | 0.00 | 0.00 | 58 | 1090.0 |
| 20260906041517 | 76 | 88 | 0.0 | 0.0 | 0.00 | 0.00 | 0.00 | 61 | 1090.0 |
| 20260906040016 | 76 | 86 | 0.0 | 1.7 | 0.00 | 0.00 | 0.00 | 61 | 1090.0 |
| 20260906034514 | 76 | 84 | 0.0 | 1.7 | 0.00 | 0.00 | 0.00 | 60 | 1090.0 |
| 20260906033019 | 76 | 84 | 0.0 | 1.7 | 0.00 | 0.00 | 0.00 | 60 | 1090.0 |
| 20260906031519 | 76 | 81 | 0.9 | 2.6 | 0.00 | 0.00 | 0.00 | 60 | 1090.0 |
| 20260906030014 | 77 | 87 | 0.9 | 1.7 | 0.00 | 0.00 | 0.00 | 64 | 1090.0 |
| 20260906024512 | 77 | 84 | 0.9 | 1.7 | 0.00 | 0.00 | 0.00 | 64 | 1090.0 |
| 20260906023011 | 77 | 84 | 0.9 | 1.7 | 0.00 | 0.00 | 0.00 | 64 | 1090.0 |
| 20260906021511 | 77 | 84 | 0.0 | 0.0 | 0.00 | 0.00 | 0.00 | 65 | 1090.0 |
| 20260906020011 | 77 | 84 | 0.0 | 0.0 | 0.00 | 0.00 | 0.00 | 64 | 1090.0 |
| 20260906014511 | 78 | 83 | 0.0 | 0.0 | 0.00 | 0.00 | 0.00 | 65 | 1090.0 |
| 20260906013011 | 78 | 64 | 0.0 | 0.0 | 0.00 | 0.00 | 0.00 | 66 | 1090.0 |
| 20260906011510 | 79 | 64 | 0.0 | 0.0 | 0.00 | 0.00 | 0.00 | 67 | 1090.0 |
| 20260906010010 | 79 | 64 | 0.0 | 0.0 | 0.00 | 0.00 | 0.00 | 67 | 1090.0 |
| 20260906004509 | 79 | 64 | 0.0 | 0.0 | 0.00 | 0.00 | 0.00 | 66 | 1090.0 |
| 20260906003008 | 80 | 217 | 0.0 | 0.0 | 0.00 | 0.00 | 0.00 | 67 | 1090.0 |
| 20260906001508 | 80 | 217 | 0.0 | 0.0 | 0.00 | 0.00 | 0.00 | 67 | 1090.0 |
| 20260906000008 | 81 | 219 | 0.0 | 0.0 | 0.00 | 0.00 | 0.00 | 69 | 1090.0 |
| 20260905234506 | 82 | 200 | 0.0 | 0.0 | 0.00 | 0.00 | 0.00 | 69 | 1090.0 |
| 20260905233012 | 82 | 224 | 0.0 | 0.0 | 0.00 | 0.00 | 0.00 | 68 | 1090.0 |
| 20260905231505 | 82 | 224 | 0.0 | 0.0 | 0.00 | 0.00 | 0.00 | 68 | 1090.0 |
| 20260905230006 | 82 | 230 | 0.0 | 0.0 | 0.00 | 0.00 | 0.00 | 68 | 1090.0 |
| 20260905224508 | 81 | 219 | 0.0 | 0.0 | 0.00 | 0.00 | 0.00 | 67 | 1090.0 |
| 20260905223005 | 81 | 218 | 0.0 | 0.0 | 0.00 | 0.00 | 0.00 | 66 | 1090.0 |
| 20260905221506 | 78 | 186 | 0.0 | 0.0 | 0.00 | 0.00 | 0.00 | 61 | 1090.0 |
| 20260905220004 | 75 | 207 | 0.0 | 0.0 | 0.00 | 0.00 | 0.00 | 53 | 1090.0 |
| 20260905214502 | 73 | 207 | 0.0 | 0.0 | 0.00 | 0.00 | 0.00 | 60 | 1090.0 |
| 20260905213108 | 75 | 236 | 0.0 | 0.0 | 0.00 | 0.00 | 0.00 | 72 | 1090.0 |
| 20260905211600 | 80 | 250 | 0.0 | 0.9 | 0.00 | 0.00 | 0.00 | 64 | 1090.0 |
| 20260905210055 | 86 | 223 | 0.0 | 4.3 | 0.00 | 0.00 | 0.00 | 56 | 1090.0 |
| 20260905204553 | 92 | 251 | 0.0 | 0.9 | 0.00 | 0.00 | 0.00 | 52 | 1090.0 |
| 20260905203048 | 96 | 79 | 0.9 | 5.2 | 0.00 | 0.00 | 0.00 | 46 | 1090.0 |
| 20260905201542 | 98 | 287 | 0.0 | 0.0 | 0.00 | 0.00 | 0.00 | 46 | 1090.0 |
| 20260905200043 | 97 | 298 | 0.0 | 0.0 | 0.00 | 0.00 | 0.00 | 49 | 1090.0 |
| 20260905194529 | 97 | 213 | 0.0 | 0.9 | 0.00 | 0.00 | 0.00 | 50 | 1090.0 |
| 20260905193029 | 96 | 183 | 0.0 | 0.0 | 0.00 | 0.00 | 0.00 | 48 | 1090.0 |
| 20260905191520 | 95 | 195 | 0.0 | 0.0 | 0.00 | 0.00 | 0.00 | 52 | 1090.0 |
| 20260905190015 | 96 | 182 | 0.0 | 0.9 | 0.00 | 0.00 | 0.00 | 52 | 1090.0 |
| 20260905184515 | 96 | 283 | 0.0 | 0.9 | 0.00 | 0.00 | 0.00 | 48 | 1090.0 |
| 20260905183003 | 96 | 340 | 0.0 | 0.9 | 0.00 | 0.00 | 0.00 | 49 | 1090.0 |
| 20260905181558 | 96 | 219 | 0.0 | 1.7 | 0.00 | 0.00 | 0.00 | 51 | 1090.0 |
| 20260905180052 | 94 | 228 | 0.0 | 3.5 | 0.00 | 0.00 | 0.00 | 55 | 1090.0 |
| 20260905174549 | 93 | 148 | 0.0 | 2.6 | 0.00 | 0.00 | 0.00 | 53 | 1090.0 |
| 20260905173037 | 93 | 308 | 0.0 | 0.0 | 0.00 | 0.00 | 0.00 | 57 | 1090.0 |
| 20260905171534 | 93 | 85 | 0.0 | 1.7 | 0.00 | 0.00 | 0.00 | 56 | 1090.0 |
| 20260905170024 | 91 | 226 | 0.0 | 3.5 | 0.00 | 0.00 | 0.00 | 58 | 1090.0 |
| 20260905164515 | 90 | 350 | 0.0 | 2.6 | 0.00 | 0.00 | 0.00 | 60 | 1090.0 |
| 20260905163008 | 89 | 260 | 0.0 | 0.0 | 0.00 | 0.00 | 0.00 | 64 | 1090.0 |
| 20260905161503 | 87 | 253 | 0.0 | 0.0 | 0.00 | 0.00 | 0.00 | 66 | 1090.0 |
| 20260905160104 | 86 | 274 | 0.0 | 0.0 | 0.00 | 0.00 | 0.00 | 66 | 1090.0 |
| 20260905154556 | 85 | 286 | 0.0 | 0.0 | 0.00 | 0.00 | 0.00 | 67 | 1090.0 |
| 20260905153054 | 83 | 263 | 0.0 | 0.0 | 0.00 | 0.00 | 0.00 | 67 | 1090.0 |
| 20260905151549 | 82 | 315 | 0.0 | 0.0 | 0.00 | 0.00 | 0.00 | 67 | 1090.0 |
| 20260905150046 | 81 | 317 | 0.0 | 0.0 | 0.00 | 0.00 | 0.00 | 67 | 1090.0 |
| 20260905144550 | 80 | 320 | 0.0 | 0.0 | 0.00 | 0.00 | 0.00 | 67 | 1090.0 |
| 20260905143041 | 80 | 101 | 0.0 | 0.0 | 0.00 | 0.00 | 0.00 | 66 | 1090.0 |
| 20260905141601 | 79 | 101 | 0.0 | 0.0 | 0.00 | 0.00 | 0.00 | 65 | 1090.0 |
| 20260905140039 | 78 | 101 | 0.0 | 0.0 | 0.00 | 0.00 | 0.00 | 63 | 1090.0 |
| 20260905134534 | 78 | 101 | 0.0 | 0.0 | 0.00 | 0.00 | 0.00 | 59 | 1090.0 |
| 20260905133049 | 78 | 101 | 0.0 | 0.0 | 0.00 | 0.00 | 0.00 | 61 | 1090.0 |
| 20260905131549 | 78 | 101 | 0.0 | 0.0 | 0.00 | 0.00 | 0.00 | 64 | 1090.0 |
| 20260905130032 | 78 | 101 | 0.0 | 0.0 | 0.00 | 0.00 | 0.00 | 64 | 1090.0 |
| 20260905124530 | 77 | 101 | 0.0 | 0.0 | 0.00 | 0.00 | 0.00 | 62 | 1090.0 |
| 20260905123028 | 0 | 0.0 | 0.0 | 0.00 | 0.00 | 0.00 | 1090.0 | ||
| 20260905121521 | 0 | 0.0 | 0.0 | 0.00 | 0.00 | 0.00 | 1090.0 | ||
| 20260905120017 | 0 | 0.0 | 0.0 | 0.00 | 0.00 | 0.00 | 1090.0 | ||
| 20260905114512 | 0 | 0.0 | 0.0 | 0.00 | 0.00 | 0.00 | 1090.0 | ||
| 20260905113013 | 0 | 0.0 | 0.0 | 0.00 | 0.00 | 0.00 | 1090.0 | ||
| 20260905111503 | 0 | 0.0 | 0.0 | 0.00 | 0.00 | 0.00 | 1090.0 | ||
| 20260905110100 | 0 | 0.0 | 0.0 | 0.00 | 0.00 | 0.00 | 1090.0 | ||
| 20260905104556 | 0 | 0.0 | 0.0 | 0.00 | 0.00 | 0.00 | 1090.0 | ||
| 20260905103051 | 0 | 0.0 | 0.0 | 0.00 | 0.00 | 0.00 | 1090.0 | ||
| 20260905101547 | 0 | 0.0 | 0.0 | 0.00 | 0.00 | 0.00 | 1090.0 | ||
| 20260905100059 | 0 | 0.0 | 0.0 | 0.00 | 0.00 | 0.00 | 1090.0 | ||
| 20260905094537 | 0 | 0.0 | 0.0 | 0.00 | 0.00 | 0.00 | 1090.0 | ||
| 20260905093032 | 0 | 0.0 | 0.0 | 0.00 | 0.00 | 0.00 | 1090.0 | ||
| 20260905091526 | 0 | 0.0 | 0.0 | 0.00 | 0.00 | 0.00 | 1090.0 | ||
| 20260905090022 | 0 | 0.0 | 0.0 | 0.00 | 0.00 | 0.00 | 1090.0 | ||
| 20260905084518 | 0 | 0.0 | 0.0 | 0.00 | 0.00 | 0.00 | 1090.0 |